Regional Weather Roundup
Issued by NWS Upton, NY

Current Version | Previous Version | Text Only | Print | Product List | Glossary Off
Versions: 1 2 3 4 5 6 7 8 9 10 11 12 13 14 15 16 17 18 19 20 21 22 23 24 25 26 27
000 ASUS41 KOKX 231108 RWROKX REGIONAL WEATHER ROUNDUP NATIONAL WEATHER SERVICE NEW YORK NY 700 AM EDT MON OCT 23 2017 NOTE: "FAIR" INDICATES FEW OR NO CLOUDS BELOW 12,000 FEET WITH NO SIGNIFICANT WEATHER AND/OR OBSTRUCTIONS TO VISIBILITY. NYZ071-072-176-178-NJZ106-104-231200- NEW YORK CITY METRO AREA CITY SKY/WX TMP DP RH WIND PRES REMARKS Central Park CLOUDY 64 61 90 VRB5 30.33F Bronx Bot Gard N/A 61 59 94 E1 30.34S LaGuardia APRT MOCLDY 63 61 93 NE6 30.30F Kennedy INTL MOCLDY 59 59 100 E7 30.31F Breezy Point N/A 63 N/A N/A SE5 N/A Newark/Liberty MOCLDY 64 62 93 E3 30.30F Teterboro MOCLDY 60 56 86 CALM 30.30F $$ NYZ177-179-078>081-231200- LONG ISLAND NEW YORK CITY SKY/WX TMP DP RH WIND PRES REMARKS Jones Beach N/A 63 N/A N/A SE2 N/A Matinecock PT N/A 61 N/A N/A E2 N/A Farmingdale CLOUDY 58 58 100 CALM 30.32F MacArthur/ISP FOG 54 54 100 CALM 30.32F VSB 1/2 Shirley CLOUDY 53 51 93 CALM 30.33F FOG Mt Sinai Harb N/A N/A N/A N/A S5 N/A Westhampton FOG 46 44 93 CALM 30.35S VSB 3/4 East Hampton FAIR 46 46 99 CALM 30.34S Montauk N/A 61 61 100 VRB5 30.36S $$ NYZ052-065-067-231200- HUDSON VALLEY CITY SKY/WX TMP DP RH WIND PRES REMARKS White Plains FOG 60 59 96 E6 30.31F VSB 1/4 Larchmont Harb N/A 59 N/A N/A N1 N/A Croton On Huds N/A 59 N/A N/A MISG N/A Newburgh NOT AVBL Montgomery CLOUDY 53 50 89 CALM 30.31F Poughkeepsie CLOUDY 53 50 89 CALM 30.31S Albany PTCLDY 52 45 77 S8 30.29S $$ NJZ001-105-106-008-010-013-015-019>022-104-231200- NEW JERSEY CITY SKY/WX TMP DP RH WIND PRES REMARKS Newark/Liberty MOCLDY 64 62 93 E3 30.30F Teterboro MOCLDY 60 56 86 CALM 30.30F Caldwell CLOUDY 57 55 93 CALM 30.32F Somerville CLOUDY 56 55 97 CALM 30.29S Linden CLOUDY 62 59 92 CALM 30.30S Perth Amboy N/A 63 N/A N/A E6 N/A Sussex CLOUDY 54 51 90 CALM 30.31F Andover N/A 56 55 97 CALM 30.30F Trenton FOG 60 59 96 E5 30.29S VSB 3/4 Millville FOG 60 60 100 CALM 30.27F VSB 3/4 Atlantic City PTCLDY 63 62 97 SE6 30.28F Wrightstown FOG 52 52 99 CALM 30.27S VSB 1/2 Toms River FOG 49 49 100 CALM 30.30S VSB 1/4 Belmar PTCLDY 62 61 96 SE5 30.31F $$ PAZ047>061-062-071-231200- EASTERN PENNSYLVANIA CITY SKY/WX TMP DP RH WIND PRES REMARKS Philadelphia CLOUDY 61 60 97 NE3 30.28F FOG Allentown CLOUDY 61 57 87 E6 30.28F Scranton CLOUDY 56 53 90 CALM 30.27F $$ CTZ002-004>006-009-010-012-RIZ004-006-007-MAZ004-011-015-231200- SOUTHERN NEW ENGLAND IN CT CITY SKY/WX TMP DP RH WIND PRES REMARKS Bradley INTL CLOUDY 50 50 100 NE3 30.35F FOG Hartford CLOUDY 52 52 100 NE3 30.35F FOG Danbury CLOUDY 55 54 96 CALM 30.34F FOG Wtrbury/Oxford FOG 57 57 100 SE5 30.35F VSB 1/4 Norwalk Harbor N/A 57 N/A N/A N3 N/A Bridgeport CLOUDY 58 56 93 CALM 30.33F Meriden CLOUDY 52 52 100 CALM 30.35S New Haven MOCLDY 56 54 93 CALM 30.34F FOG Chester CLOUDY 59 59 100 CALM 30.35S Groton FOG 52 51 97 N5 30.35S VSB 1/4 Wilimantic FOG 50 50 100 CALM 30.37S VSB 1 IN RI CITY SKY/WX TMP DP RH WIND PRES REMARKS Providence FOG 53 53 100 N3 30.38S VSB 1/4 Block Island CLEAR 60 59 96 S8 30.36S Westerly FOG 51 50 96 CALM 30.36F VSB 1/4 IN MA CITY SKY/WX TMP DP RH WIND PRES REMARKS Boston CLOUDY 54 53 97 CALM 30.38S Worcester FOG 50 48 93 SE3 30.36F VSB 1/4 Westfield FOG 46 46 100 CALM 30.35F VSB 1/2 Provincetown LGT RAIN 54 54 100 NE6 30.39S VSB 1/4 Nantucket CLEAR 55 55 100 E9 30.37F $$ ANZ330-335-338-340-345-350-353-355-231200- COASTAL MARINE OBSERVATIONS STATION/POSITION TIME SKY/WX TEMP WIND PRES VSBY WAVE AIR SEA DIR/SP/G HT/PER (UTC) (F) (DEG/KT/KT) (MB) (MI) (FT/S) NY HARB ENTRANCE 0950 65 65 160/ 8/ 10 1026.0 2/ 9 20 S FIRE ISLAND 0950 64 64 160/ 10/ 12 1026.8 2/ 9 GREAT SOUTH BAY 1030 63 62 160/ 6/ 8 N/A 15 E BARNEGAT LI NOT AVBL HUDSON CANYON 0950 65 65 130/ 10/ 10 1026.6 2/ 9 KINGS POINT 1024 61 65 CALM / 1 1027.3 EXECUTION ROCKS 1030 63 90/ 2/ 4 N/A WESTERN LI SOUND 1019 63 100/ 2/ 6 N/A 0 CENTRAL LI SOUND 1015 64 160/ 10/ 12 N/A 1 EASTERN LI SOUND NOT AVBL ROBBINS REEF 1042 64 110/ 6/ 7 1026.7 $$ >>>>>>>>>>>>>>>>>>>>>>>>>>>> KEY <<<<<<<<<<<<<<<<<<<<<<<<<<< > < > SKY/WX - Sky Condition/Present Weather < > TMP - Temperature in Fahrenheit < > DP - Dew Point in Fahrenheit < > RH - Relative Humidity in Percent < > WIND - Direction (from) and Speed in MPH < > PRES - Mean Sea Level Pressure (inches of Hg) < > WCI - Wind Chill Index < > VSB - VISIBILITY IN MILES < > HX - HEAT INDEX < > TC - TEMPERATURE IN CELSIUS < > VRB - VARIABLE WIND DIRECTION < > < >>>>>>>>>>>>>>>>>>>>>>>>>>>> KEY <<<<<<<<<<<<<<<<<<<<<<<<<<<

USA.gov is the U.S. government's official web portal to all federal, state and local government web resources and services.